Location: Longueuil
(45.5369°N, 73.5107°W)
Time: 08:19:50
(UTC-05:00)

Envisat - Visible Passes

Search period start: 27 February 2024 00:00
Search period end: 08 March 2024 00:00
Orbit: 762 x 764 km, 98.3° (Epoch: 26 February)

Date Brightness Start Highest point End Pass type
(mag) Time Alt. Az. Time Alt. Az. Time Alt. Az.
27 Feb 5.8 02:18:39 10° NE 02:19:23 13° NE 02:19:23 13° NE visible
27 Feb 4.2 03:56:48 10° N 03:59:33 31° N 03:59:33 31° N visible
28 Feb 4.6 03:19:24 10° NNE 03:21:57 30° NNE 03:21:57 30° NNE visible
28 Feb 4.7 04:59:43 10° NNW 05:02:08 16° NW 05:02:08 16° NW visible
29 Feb 5.3 02:42:27 10° NNE 02:44:22 21° NE 02:44:22 21° NE visible
29 Feb 4.2 04:21:30 10° N 04:24:32 28° NW 04:24:32 28° NW visible
01 Mar 5.9 02:06:18 10° NE 02:06:47 11° NE 02:06:47 11° NE visible
01 Mar 4.0 03:43:50 10° N 03:46:57 37° N 03:46:57 37° N visible
01 Mar 5.0 05:25:54 10° NW 05:26:55 11° NW 05:27:07 11° WNW visible
02 Mar 4.6 03:06:34 10° NNE 03:09:21 31° NE 03:09:21 31° NE visible
02 Mar 4.4 04:46:25 10° NNW 04:49:31 21° NW 04:49:31 21° NW visible
03 Mar 5.4 02:29:48 10° NE 02:31:45 19° NE 02:31:45 19° NE visible
03 Mar 3.8 04:08:25 10° N 04:11:56 35° NW 04:11:56 35° NW visible
04 Mar 3.8 03:30:54 10° NNE 03:34:20 44° NNE 03:34:20 44° NNE visible
04 Mar 4.7 05:11:47 10° NNW 05:14:12 14° WNW 05:14:31 13° WNW visible
05 Mar 4.6 02:53:46 10° NNE 02:56:44 31° NE 02:56:44 31° NE visible
05 Mar 4.1 04:33:12 10° N 04:36:55 26° NW 04:36:55 26° NW visible
06 Mar 5.5 02:17:16 10° NE 02:19:09 17° ENE 02:19:09 17° ENE visible
06 Mar 3.5 03:55:23 10° N 03:59:19 46° NNW 03:59:19 46° NNW visible
07 Mar 3.8 03:17:59 10° NNE 03:21:43 48° NNE 03:21:43 48° NNE visible
07 Mar 4.5 04:58:17 10° NNW 05:01:29 17° WNW 05:01:54 17° WNW visible
